Wind_Speed
15 16 15 15 15 14 14 14 14 14 14 14 14 14 13 13 13 13 13 12 12 12 12 12 11 11 10 10 11 11 11 10 10 9 9 9 9 9 9 8 8 7 7
16 17 17 16 16 16 15 15 16 15 15 15 15 15 15 14 14 14 13 12 12 12 13 13 12 12 11 11 11 11 11 11 11 10 10 10 10 10 9 9 8 8 8
18 18 17 17 17 17 16 16 16 16 16 16 16 16 16 15 15 15 14 14 14 13 14 14 14 13 13 13 12 12 13 12 12 12 11 10 10 11 11 10 9 9 8
20 19 19 19 18 18 17 17 17 17 17 17 17 17 17 16 16 16 16 16 16 15 15 15 15 15 14 14 14 13 14 14 14 13 13 12 11 11 12 11 11 10 10
22 22 21 21 20 20 20 19 18 18 18 18 18 17 17 18 17 18 18 17 17 17 16 16 16 16 15 15 15 15 15 15 15 14 14 14 13 12 12 12 12 12 12
24 24 23 22 22 21 22 21 21 20 20 19 19 19 18 18 18 18 19 19 19 18 18 17 17 16 16 15 15 16 16 16 16 16 15 14 14 13 12 12 13 13 13
25 25 25 24 23 22 22 23 23 22 22 21 21 21 20 20 20 20 20 20 19 19 19 19 19 18 18 17 17 17 17 17 17 16 16 16 15 15 14 14 13 13 13
27 27 27 26 25 24 24 23 24 24 24 23 23 22 22 22 21 21 22 22 21 21 21 20 20 20 19 19 18 18 17 17 17 17 16 16 16 16 16 16 15 14 14
28 29 29 29 27 26 26 25 25 25 26 25 25 25 24 24 23 22 22 23 23 23 22 22 21 21 21 20 20 19 19 18 19 18 18 17 17 16 16 17 17 16 16
30 30 31 30 30 29 29 28 27 27 27 27 27 27 26 26 25 24 24 24 24 24 23 23 23 23 22 22 22 21 21 20 20 20 19 18 19 18 18 18 19 19 19
33 33 33 33 32 32 31 31 30 29 29 29 29 29 29 28 28 27 26 26 25 25 25 24 24 24 24 24 23 23 22 22 22 22 21 21 21 20 19 20 20 20 20
34 34 34 34 35 34 33 33 32 32 31 31 30 30 30 30 29 29 28 28 28 28 27 26 25 26 25 26 25 25 24 24 24 24 24 23 23 23 22 22 22 22 22
36 36 36 36 36 36 36 35 35 35 34 33 33 33 32 31 31 31 30 30 29 29 29 28 27 27 27 27 27 27 27 26 26 26 25 25 25 25 25 25 25 25 24
37 37 37 37 37 37 37 37 37 37 36 35 35 35 34 33 32 32 32 32 31 31 31 30 28 28 29 29 28 28 29 29 29 29 28 27 27 27 27 27 27 26 26
39 39 39 39 39 38 38 38 38 39 38 37 37 36 36 36 35 35 34 33 33 33 33 33 32 31 31 31 31 30 30 31 31 31 31 31 31 30 30 30 30 29 29
41 42 42 41 41 40 40 39 39 40 40 39 38 38 38 38 38 38 37 36 36 35 35 35 35 34 34 33 33 33 32 32 32 33 33 34 34 33 33 32 32 32 32
42 43 43 43 43 42 41 40 40 41 41 41 41 40 40 40 40 40 39 39 39 38 38 37 37 37 37 36 36 35 35 34 35 35 35 36 36 36 36 36 35 35 35
44 44 44 44 44 44 43 42 42 42 42 42 42 42 41 42 42 42 42 41 41 41 40 40 40 39 39 39 39 38 38 37 37 37 37 37 37 38 39 39 38 38 38
44 45 45 44 44 44 44 44 43 43 43 43 43 43 43 43 43 43 43 43 43 43 43 42 42 42 42 41 41 41 40 40 39 39 39 39 39 40 40 41 40 40 40
46 46 46 46 46 45 45 45 44 44 44 43 44 45 45 45 44 45 45 45 45 45 45 45 45 45 45 44 44 44 43 43 43 42 42 41 41 41 41 42 42 42 42
46 47 47 47 47 46 46 46 46 45 45 46 45 45 46 47 47 47 47 47 46 46 46 47 47 47 47 47 47 47 47 46 46 45 44 44 44 43 43 43 43 43 44
46 47 48 49 49 48 47 47 47 47 47 47 47 46 47 47 48 48 48 48 47 48 47 48 48 48 48 48 49 49 49 49 48 48 47 46 46 46 46 45 45 45 45
46 47 48 49 50 49 48 48 48 48 48 48 48 48 48 47 48 48 49 48 47 48 48 48 49 49 49 49 50 50 50 50 50 50 49 49 48 48 48 48 48 47 47
45 46 46 48 49 49 49 49 49 49 49 48 49 48 48 49 49 49 49 49 49 49 49 49 50 50 50 50 50 50 51 51 51 51 50 50 50 50 50 50 50 50 50
44 45 45 46 47 48 49 49 49 49 49 49 49 49 49 50 50 50 50 50 50 50 50 51 51 51 52 51 51 51 51 52 52 51 51 51 52 52 52 52 51 52 52
43 44 44 45 46 46 47 48 49 50 50 50 50 50 49 50 50 49 50 51 51 51 51 52 52 52 52 51 51 52 52 52 52 52 52 53 53 53 53 54 53 53 54
Wind_Direction
250 248 247 249 249 248 247 248 247 244 243 240 238 236 235 233 232 234 238 239 239 237 237 235 230 227 228 226 226 225 223 218 216 209 204 204 205 206 207 208 210 215 217
250 250 249 248 248 248 248 249 247 245 244 242 241 239 239 238 238 238 237 240 240 238 237 235 233 233 231 229 229 227 224 221 221 220 217 215 216 217 218 220 221 221 222
249 250 249 249 248 249 249 249 247 247 247 245 243 241 242 242 240 240 240 241 241 241 238 235 235 236 235 233 230 230 229 228 229 227 225 223 222 223 223 226 227 228 229
251 251 249 249 248 248 249 248 248 249 249 247 245 244 243 243 242 241 241 240 241 241 240 238 237 238 238 236 233 233 233 232 232 234 233 231 229 227 227 229 232 233 235
252 253 252 250 250 250 251 250 249 248 248 247 247 246 246 245 242 241 241 240 241 240 240 239 239 240 239 237 235 235 236 234 234 237 240 238 236 235 233 233 233 236 238
252 253 253 253 253 252 253 252 251 249 247 248 248 247 247 247 243 242 242 242 243 241 240 241 240 239 239 239 239 238 238 238 238 239 242 243 241 242 242 240 237 237 240
252 252 253 253 252 252 253 252 251 249 249 249 248 248 247 246 245 244 244 243 243 243 241 242 241 240 239 239 240 241 240 240 241 242 244 244 244 245 244 243 241 240 241
253 253 252 253 253 253 253 252 251 250 250 250 248 248 247 246 246 244 244 243 244 244 243 242 241 241 240 240 241 242 242 242 241 243 245 245 245 247 247 245 243 241 243
254 253 253 253 253 254 254 253 252 251 251 250 249 248 248 246 244 245 245 243 243 244 243 242 241 241 242 242 242 243 242 242 242 242 245 246 245 245 246 245 246 246 246
253 253 253 253 253 254 253 253 253 252 252 253 252 250 249 248 247 247 247 245 244 242 243 243 242 242 242 242 242 243 243 243 242 242 243 245 245 244 245 245 246 248 248
253 252 253 253 253 253 253 253 253 253 253 253 253 253 250 249 248 248 248 246 245 246 246 246 246 245 244 243 243 244 244 244 244 245 244 246 248 247 247 248 248 248 248
254 253 253 253 253 253 253 252 252 252 253 253 253 252 251 249 249 248 248 248 248 249 248 248 249 248 247 247 246 246 246 245 246 247 246 247 248 249 249 249 250 250 250
254 253 253 253 254 254 253 253 253 252 251 252 252 252 252 251 251 250 249 250 250 250 250 250 250 249 249 249 250 248 247 246 247 246 246 247 248 249 249 250 251 252 252
255 255 255 255 254 254 254 253 253 253 252 251 252 252 252 251 251 251 251 250 250 251 251 251 249 248 249 250 251 250 250 249 248 248 249 249 250 251 251 251 252 253 253
256 256 256 255 255 255 255 254 253 254 253 252 251 251 251 250 250 251 251 251 251 252 251 251 250 250 250 251 251 251 251 251 251 251 251 251 252 253 253 254 254 254 253
255 255 255 255 255 254 254 255 255 254 253 253 252 252 252 251 251 252 252 252 252 252 252 252 252 252 252 253 253 253 253 253 252 252 252 252 253 254 254 254 254 255 255
255 254 254 255 255 254 254 253 253 253 254 254 254 253 253 253 252 252 252 251 252 252 252 252 253 253 253 253 253 253 253 254 253 253 254 253 253 253 254 254 255 256 257
256 255 255 255 255 254 254 253 253 252 254 254 254 253 253 253 252 252 251 252 252 252 252 253 253 253 253 253 253 253 254 254 254 255 255 254 253 253 254 255 256 256 257
256 255 255 254 254 254 254 253 253 253 253 254 254 253 252 252 252 252 252 251 252 253 253 253 254 253 253 254 254 254 254 254 255 256 256 257 256 254 254 255 256 257 257
255 255 255 254 255 254 254 254 253 253 253 253 253 253 253 252 252 253 253 252 253 253 254 253 254 254 254 255 255 255 255 255 256 256 256 257 257 256 255 256 256 257 257
255 254 254 254 255 255 254 254 253 254 253 253 253 254 254 254 253 253 253 254 254 254 255 255 255 255 255 255 256 257 256 256 256 257 257 257 257 257 257 257 258 258 258
255 254 254 254 253 254 254 254 253 254 253 254 254 254 254 254 254 253 253 254 254 255 256 257 257 257 256 257 257 257 257 256 256 257 257 258 258 258 258 258 259 260 260
256 254 253 253 253 253 252 253 253 253 254 254 255 255 255 254 254 254 254 253 254 255 256 257 258 258 258 258 258 258 257 257 257 257 257 258 258 259 259 259 259 260 261
257 255 254 253 253 252 252 252 253 254 253 253 254 254 254 255 254 254 254 254 255 256 257 257 258 258 259 260 259 258 258 258 257 257 257 258 259 259 259 259 260 260 261
259 256 254 253 253 253 252 253 253 253 253 253 253 253 254 254 254 254 255 254 255 256 257 258 258 259 259 259 259 260 260 260 259 258 257 258 259 260 260 260 260 262 262
261 259 255 254 254 253 254 254 254 254 253 253 253 253 254 254 253 254 255 255 255 257 258 259 259 259 259 259 260 261 261 261 260 258 259 259 260 260 261 261 262 263 263
Height
5817 5817 5818 5819 5820 5820 5821 5821 5822 5823 5823 5824 5825 5827 5828 5829 5830 5831 5832 5833 5834 5835 5836 5837 5837 5838 5839 5840 5840 5841 5842 5843 5844 5845 5846 5847 5849 5851 5852 5854 5855 5856 5857
5814 5814 5815 5816 5817 5818 5818 5818 5819 5820 5821 5822 5823 5824 5825 5827 5828 5829 5830 5831 5832 5833 5834 5835 5836 5837 5838 5838 5839 5840 5841 5842 5844 5845 5846 5847 5848 5850 5851 5853 5854 5855 5856
5810 5811 5812 5813 5814 5815 5815 5816 5816 5817 5818 5819 5820 5822 5823 5824 5825 5826 5828 5829 5830 5831 5832 5833 5834 5835 5836 5837 5838 5839 5840 5841 5842 5843 5845 5846 5847 5849 5850 5851 5853 5854 5855
5807 5808 5809 5809 5810 5811 5812 5813 5814 5814 5815 5817 5818 5819 5820 5821 5823 5824 5825 5826 5827 5828 5830 5831 5832 5833 5834 5835 5836 5837 5838 5840 5841 5842 5843 5845 5846 5847 5849 5850 5851 5852 5854
5803 5804 5805 5806 5807 5808 5809 5810 5811 5811 5812 5814 5815 5816 5817 5818 5820 5821 5822 5823 5824 5826 5827 5828 5829 5830 5831 5832 5834 5835 5836 5838 5839 5840 5842 5843 5845 5846 5847 5848 5850 5851 5852
5799 5800 5802 5802 5803 5804 5805 5806 5807 5808 5809 5810 5811 5813 5814 5815 5816 5818 5819 5820 5821 5823 5824 5825 5826 5827 5829 5830 5831 5833 5834 5835 5837 5838 5840 5841 5842 5844 5845 5846 5848 5849 5850
5795 5796 5797 5798 5799 5800 5801 5802 5803 5804 5805 5806 5807 5809 5810 5811 5813 5814 5815 5817 5818 5819 5821 5822 5823 5824 5826 5827 5828 5830 5831 5833 5835 5836 5837 5838 5840 5841 5843 5844 5845 5846 5848
5790 5791 5792 5793 5795 5796 5796 5797 5798 5800 5801 5802 5803 5805 5806 5807 5808 5810 5811 5813 5814 5816 5817 5818 5819 5821 5822 5824 5825 5827 5828 5830 5832 5833 5834 5836 5837 5839 5840 5841 5842 5843 5845
5784 5786 5787 5788 5789 5791 5792 5793 5794 5795 5796 5797 5799 5800 5801 5802 5804 5805 5807 5808 5810 5811 5813 5814 5815 5817 5819 5820 5822 5824 5825 5827 5829 5830 5831 5833 5834 5835 5837 5838 5839 5841 5842
5779 5780 5781 5782 5784 5785 5786 5787 5788 5789 5791 5792 5793 5795 5796 5798 5799 5801 5802 5804 5805 5806 5808 5809 5811 5813 5814 5816 5818 5820 5821 5823 5825 5826 5828 5829 5830 5832 5833 5834 5836 5837 5838
5772 5773 5774 5776 5777 5779 5780 5781 5782 5784 5785 5786 5788 5789 5791 5792 5794 5796 5797 5798 5800 5802 5803 5805 5806 5808 5810 5811 5813 5815 5817 5819 5821 5822 5824 5825 5826 5828 5829 5830 5832 5833 5834
5764 5765 5767 5769 5770 5772 5773 5774 5776 5777 5779 5780 5781 5783 5785 5786 5788 5790 5791 5793 5795 5796 5798 5799 5801 5803 5805 5806 5808 5810 5812 5814 5816 5818 5819 5821 5822 5823 5825 5826 5827 5829 5830
5756 5757 5759 5761 5762 5764 5765 5767 5769 5770 5772 5773 5774 5776 5778 5780 5782 5783 5785 5787 5789 5790 5792 5794 5796 5797 5799 5801 5803 5805 5807 5809 5811 5812 5814 5816 5817 5818 5820 5821 5823 5824 5825
5748 5749 5751 5752 5754 5756 5757 5759 5761 5762 5764 5766 5767 5769 5771 5773 5774 5776 5778 5780 5782 5784 5786 5788 5790 5792 5793 5795 5797 5799 5801 5803 5805 5807 5808 5810 5812 5813 5814 5816 5817 5818 5820
5739 5740 5741 5743 5745 5747 5749 5750 5752 5754 5756 5758 5759 5761 5763 5765 5767 5769 5771 5773 5775 5777 5779 5781 5783 5785 5787 5789 5790 5792 5794 5796 5798 5800 5802 5804 5806 5807 5808 5810 5811 5812 5814
5729 5731 5732 5734 5735 5737 5739 5741 5743 5744 5746 5748 5750 5752 5754 5756 5758 5761 5763 5765 5767 5769 5771 5773 5775 5777 5779 5781 5783 5785 5787 5789 5791 5793 5795 5797 5798 5800 5802 5803 5804 5806 5807
5719 5721 5722 5724 5726 5727 5729 5731 5733 5735 5737 5739 5741 5743 5745 5747 5749 5752 5754 5756 5758 5760 5763 5765 5767 5769 5771 5773 5775 5777 5779 5781 5783 5785 5787 5789 5791 5792 5794 5796 5797 5799 5800
5709 5710 5712 5714 5716 5718 5719 5721 5724 5726 5727 5729 5731 5734 5736 5738 5740 5742 5744 5747 5749 5751 5754 5756 5758 5761 5763 5765 5767 5769 5771 5773 5775 5777 5778 5780 5782 5784 5786 5787 5789 5790 5792
5698 5699 5701 5703 5705 5707 5709 5711 5713 5715 5717 5719 5721 5724 5726 5728 5730 5732 5734 5736 5739 5741 5744 5746 5749 5751 5753 5755 5757 5759 5761 5764 5766 5768 5770 5771 5773 5775 5777 5778 5780 5782 5783
5686 5688 5690 5692 5694 5696 5698 5700 5702 5704 5706 5708 5710 5713 5715 5717 5719 5721 5723 5726 5728 5731 5733 5735 5738 5740 5743 5745 5747 5749 5752 5754 5756 5758 5760 5762 5763 5765 5767 5769 5771 5772 5774
5673 5675 5678 5680 5682 5684 5686 5689 5691 5693 5695 5697 5699 5701 5704 5706 5708 5710 5712 5715 5717 5720 5722 5724 5726 5729 5731 5734 5736 5738 5740 5743 5745 5747 5749 5751 5753 5755 5757 5759 5761 5762 5764
5661 5663 5665 5667 5670 5672 5674 5677 5679 5681 5683 5686 5688 5690 5692 5694 5696 5699 5701 5703 5706 5708 5711 5713 5715 5717 5719 5721 5724 5726 5728 5732 5734 5736 5738 5740 5742 5744 5746 5748 5750 5751 5753
5647 5650 5652 5654 5656 5659 5661 5664 5667 5669 5671 5673 5675 5677 5679 5681 5684 5686 5689 5692 5694 5696 5699 5701 5703 5705 5707 5708 5710 5713 5715 5718 5721 5723 5725 5728 5730 5732 5734 5736 5738 5740 5741
5635 5637 5639 5641 5643 5646 5649 5651 5654 5656 5659 5661 5663 5665 5667 5669 5671 5674 5677 5679 5682 5684 5686 5688 5690 5692 5694 5695 5697 5699 5702 5704 5707 5710 5713 5715 5717 5719 5721 5723 5725 5727 5729
5623 5624 5627 5629 5631 5634 5636 5639 5641 5644 5646 5649 5651 5653 5655 5657 5659 5662 5664 5667 5669 5672 5674 5676 5677 5679 5681 5682 5684 5686 5688 5690 5692 5696 5700 5702 5704 5706 5708 5710 5712 5714 5715
5611 5612 5614 5617 5619 5621 5623 5626 5628 5631 5633 5636 5638 5640 5642 5645 5647 5649 5652 5654 5657 5659 5661 5663 5664 5666 5668 5669 5671 5673 5674 5676 5678 5681 5684 5687 5690 5693 5694 5696 5698 5700 5701